Погода в Колтушах

Россия / Санкт-Петербург и Ленинградская область     59°56′04″N   30°39′39″E
темп.,
°C
ветер,
м/с
пор.,
м/с
влажн.,
%
обл.,
%
осадки,
мм/ч
давл.,
гПа
погр.,
м
7 марта, вс
вс700:000зюз61297100 4.7 990903
03:00−1з4989100 6.4 988581
06:00−5з5118898 0.4 9871039
09:00−7з5117385 1.0 987932
12:00−6зсз588041 0.0 989939
15:00−5сз487271 0.9 9901201
18:00−6сз5117490 0.0 992848
21:00−7ссз5138795 0.1 994880
8 марта, пн
пн800:00−8с51092100 0.6 9961015
03:00−9с51189100 0.9 1000896
06:00−10ссв51189100 0.2 1003795
09:00−11ссв5989100 0.3 1007669
12:00−11с4884100 0.1 1010622
15:00−10с4783100 0.1 1012627
18:00−12с3789100 0.1 1014598
21:00−13ссз269699 0.1 1016224
9 марта, вт
вт900:00−15св1397100 0.1 101791
03:00−17св129788 0.1 101820
06:00−18в129896 0.0 101930
09:00−19в239597 0.1 1020209
12:00−16всв238153 0.0 1021338
15:00−15всв347827 0.0 1022334
18:00−18всв35870 0.0 1022206
21:00−20всв36950 0.0 1023143
10 марта, ср
ср1000:00−20всв25950 0.0 1024123
03:00−20всв24940 0.0 1025100
06:00−21в24920 0.0 102589
09:00−19всв23830 0.0 1026122
12:00−14всв247478 0.0 1027257
15:00−12всв347688 0.0 1026288
18:00−14всв2588100 0.0 1025159
21:00−16в239391 0.0 102563
11 марта, чт
чт1100:00−16вюв23924 0.0 102452
03:00−17вюв23902 0.0 102375
06:00−17вюв38860 0.0 1021162
09:00−15юв39770 0.0 1019316
12:00−10юв48780 0.0 1016529
15:00−7ююв498240 0.0 1013631
18:00−7юв41289100 0.0 1008568
21:00−6ююв51590100 0.1 1003688